When you browse on this site, cookies collect data to enhance your experience and personalize the content and advertising you see.
Visit our Privacy Policy to learn more. By continuing to use the site, you agree to this use of cookies and data.
  • In France
  • List of Countries
  • For 7 days
  • Water Temperature
  • Satellite Maps
  • Weather Map
  • Weather Widgets
  • user-avatar
    Login

    Hourly Weather Kahabroso

    Today, 10 December, Monday

    Time Temperature Precipitation Wind Pressure Humidity
    00:00 -5°C° 0 mm 2 mps 612 mmHg 70%
    01:00 -5°C° 0 mm 2 mps 612 mmHg 69%
    02:00 -5°C° 0 mm 2 mps 612 mmHg 68%
    03:00 -5°C° 0 mm 2 mps 611 mmHg 67%
    04:00 -5°C° 0 mm 2 mps 611 mmHg 65%
    05:00 -5°C° 0 mm 2 mps 611 mmHg 64%
    06:00 -5°C° 0 mm 2 mps 611 mmHg 63%
    07:00 -4°C° 0 mm 2 mps 611 mmHg 59%
    08:00 -3°C° 0 mm 2 mps 611 mmHg 55%
    09:00 -2°C° 0 mm 2 mps 611 mmHg 51%
    10:00 -1°C° 0 mm 2 mps 611 mmHg 49%
    11:00 +2°C° 0 mm 2 mps 612 mmHg 46%
    12:00 +3°C° 0 mm 2 mps 612 mmHg 44%
    13:00 +3°C° 0 mm 2 mps 611 mmHg 48%
    14:00 +2°C° 0 mm 2 mps 611 mmHg 53%
    15:00 +2°C° 0 mm 2 mps 611 mmHg 57%
    16:00 +1°C° 0 mm 2 mps 610 mmHg 60%
    17:00 -1°C° 0 mm 2 mps 610 mmHg 63%
    18:00 -2°C° 0 mm 2 mps 610 mmHg 66%
    19:00 -2°C° 0 mm 2 mps 610 mmHg 64%
    20:00 -3°C° 0 mm 2 mps 609 mmHg 62%
    21:00 -3°C° 0 mm 2 mps 609 mmHg 60%
    22:00 -3°C° 0 mm 2 mps 609 mmHg 59%
    23:00 -3°C° 0 mm 2 mps 609 mmHg 58%

    Tomorrow, 11 December, Tuesday

    Time Temperature Precipitation Wind Pressure Humidity
    00:00 -3°C° 0 mm 2 mps 609 mmHg 57%
    01:00 -3°C° 0 mm 2 mps 609 mmHg 57%
    02:00 -3°C° 0 mm 2 mps 609 mmHg 56%
    03:00 -3°C° 0 mm 2 mps 609 mmHg 56%
    04:00 -3°C° 0 mm 2 mps 609 mmHg 55%
    05:00 -3°C° 0 mm 2 mps 609 mmHg 55%
    06:00 -3°C° 0 mm 2 mps 609 mmHg 55%
    07:00 -2°C° 0 mm 2 mps 609 mmHg 53%
    08:00 -1°C° 0 mm 2 mps 609 mmHg 50%
    09:00 +1°C° 0 mm 2 mps 610 mmHg 48%
    10:00 +3°C° 0 mm 2 mps 610 mmHg 46%
    11:00 +4°C° 0 mm 2 mps 610 mmHg 44%
    12:00 +6°C° 0 mm 2 mps 610 mmHg 41%
    13:00 +5°C° 0 mm 2 mps 610 mmHg 44%
    14:00 +5°C° 0 mm 2 mps 609 mmHg 47%
    15:00 +5°C° 0 mm 2 mps 609 mmHg 50%
    16:00 +3°C° 0 mm 3 mps 608 mmHg 53%
    17:00 +2°C° 0 mm 3 mps 608 mmHg 55%
    18:00 +1°C° 0 mm 3 mps 607 mmHg 57%
    19:00 0°C° 0 mm 4 mps 607 mmHg 57%
    20:00 0°C° 0 mm 4 mps 607 mmHg 56%
    21:00 0°C° 0 mm 4 mps 606 mmHg 55%
    22:00 0°C° 0 mm 4 mps 606 mmHg 56%
    23:00 0°C° 0 mm 4 mps 606 mmHg 56%

    Day after tomorrow, 12 December, Wednesday

    Time Temperature Precipitation Wind Pressure Humidity
    00:00 0°C° 0 mm 3 mps 606 mmHg 57%
    01:00 0°C° 0 mm 3 mps 607 mmHg 58%
    02:00 0°C° 0 mm 3 mps 607 mmHg 59%
    03:00 0°C° 0 mm 3 mps 607 mmHg 60%
    04:00 -1°C° 0.2 mm 3 mps 608 mmHg 64%
    05:00 -1°C° 0.2 mm 3 mps 608 mmHg 67%
    06:00 -1°C° 0.2 mm 3 mps 609 mmHg 70%
    07:00 -1°C° 0.2 mm 3 mps 610 mmHg 70%
    08:00 -1°C° 0.2 mm 3 mps 610 mmHg 70%
    09:00 -1°C° 0.2 mm 3 mps 611 mmHg 70%
    10:00 0°C° 0 mm 3 mps 611 mmHg 66%
    11:00 +1°C° 0 mm 3 mps 612 mmHg 61%
    12:00 +1°C° 0 mm 3 mps 612 mmHg 57%
    13:00 +2°C° 0 mm 2 mps 612 mmHg 58%
    14:00 +2°C° 0 mm 2 mps 612 mmHg 58%
    15:00 +1°C° 0 mm 2 mps 612 mmHg 59%
    16:00 -1°C° 0 mm 2 mps 611 mmHg 63%
    17:00 +1°C° 0 mm 1 mps 611 mmHg 67%
    18:00 0°C° 0 mm 1 mps 611 mmHg 70%
    19:00 0°C° 0.1 mm 1 mps 611 mmHg 72%
    20:00 -1°C° 0.1 mm 1 mps 610 mmHg 74%
    21:00 -1°C° 0.1 mm 1 mps 610 mmHg 75%
    22:00 -1°C° 0.2 mm 1 mps 610 mmHg 77%
    23:00 -1°C° 0.2 mm 1 mps 610 mmHg 79%

    13 December, Thursday

    Time Temperature Precipitation Wind Pressure Humidity
    00:00 -3°C° 0.2 mm 2 mps 609 mmHg 81%
    01:00 -1°C° 0.2 mm 1 mps 609 mmHg 83%
    02:00 -2°C° 0.2 mm 1 mps 609 mmHg 84%
    03:00 -2°C° 0.2 mm 1 mps 609 mmHg 86%
    04:00 -2°C° 0.2 mm 1 mps 609 mmHg 87%
    05:00 -2°C° 0.2 mm 1 mps 608 mmHg 89%
    06:00 -2°C° 0.2 mm 1 mps 608 mmHg 91%
    07:00 -2°C° 0.3 mm 1 mps 609 mmHg 90%
    08:00 -2°C° 0.3 mm 1 mps 609 mmHg 89%
    09:00 -2°C° 0.3 mm 1 mps 610 mmHg 87%
    10:00 -4°C° 0.2 mm 2 mps 610 mmHg 84%
    11:00 -3°C° 0.2 mm 2 mps 611 mmHg 81%
    12:00 -3°C° 0.2 mm 2 mps 611 mmHg 78%
    13:00 -3°C° 0.2 mm 2 mps 611 mmHg 79%
    14:00 -4°C° 0.2 mm 3 mps 612 mmHg 80%
    15:00 -4°C° 0.2 mm 3 mps 612 mmHg 81%
    16:00 -4°C° 0.2 mm 2 mps 612 mmHg 83%
    17:00 -4°C° 0.2 mm 2 mps 613 mmHg 86%
    18:00 -5°C° 0.2 mm 2 mps 613 mmHg 88%
    19:00 -5°C° 0.1 mm 2 mps 613 mmHg 87%
    20:00 -5°C° 0.1 mm 2 mps 613 mmHg 87%
    21:00 -4°C° 0.1 mm 1 mps 613 mmHg 86%
    22:00 -4°C° 0.1 mm 1 mps 613 mmHg 85%
    23:00 -4°C° 0.1 mm 1 mps 613 mmHg 84%

    14 December, Friday

    Time Temperature Precipitation Wind Pressure Humidity
    00:00 -4°C° 0.1 mm 1 mps 613 mmHg 83%
    01:00 -4°C° 0.1 mm 1 mps 613 mmHg 82%
    02:00 -6°C° 0.1 mm 1 mps 613 mmHg 81%
    03:00 -6°C° 0.1 mm 1 mps 613 mmHg 80%
    04:00 -6°C° 0 mm 1 mps 614 mmHg 79%
    05:00 -6°C° 0 mm 1 mps 614 mmHg 79%
    06:00 -6°C° 0 mm 1 mps 614 mmHg 78%
    07:00 -6°C° 0.1 mm 1 mps 614 mmHg 76%
    08:00 -4°C° 0.1 mm 1 mps 614 mmHg 75%
    09:00 -4°C° 0.1 mm 1 mps 615 mmHg 73%
    10:00 -4°C° 0.1 mm 1 mps 615 mmHg 71%
    11:00 -3°C° 0.1 mm 1 mps 615 mmHg 69%
    12:00 -3°C° 0.1 mm 1 mps 615 mmHg 67%
    13:00 -3°C° 0 mm 1 mps 615 mmHg 68%
    14:00 -3°C° 0 mm 1 mps 615 mmHg 68%
    15:00 -3°C° 0 mm 1 mps 615 mmHg 69%
    16:00 -4°C° 0 mm 1 mps 615 mmHg 73%
    17:00 -6°C° 0 mm 1 mps 615 mmHg 77%
    18:00 -6°C° 0 mm 1 mps 615 mmHg 81%
    19:00 -7°C° 0 mm 1 mps 615 mmHg 78%
    20:00 -7°C° 0 mm 1 mps 615 mmHg 75%
    21:00 -7°C° 0 mm 1 mps 615 mmHg 72%
    22:00 -7°C° 0 mm 1 mps 615 mmHg 69%
    23:00 -7°C° 0 mm 1 mps 615 mmHg 66%

    15 December, Saturday

    Time Temperature Precipitation Wind Pressure Humidity
    00:00 -8°C° 0 mm 2 mps 615 mmHg 63%
    01:00 -8°C° 0 mm 2 mps 615 mmHg 61%
    02:00 -7°C° 0 mm 1 mps 615 mmHg 59%
    03:00 -8°C° 0 mm 1 mps 615 mmHg 57%
    04:00 -8°C° 0 mm 1 mps 615 mmHg 55%
    05:00 -8°C° 0 mm 1 mps 615 mmHg 54%
    06:00 -9°C° 0 mm 2 mps 615 mmHg 52%
    07:00 -7°C° 0 mm 1 mps 615 mmHg 50%
    08:00 -6°C° 0 mm 1 mps 616 mmHg 48%
    09:00 -4°C° 0 mm 1 mps 617 mmHg 46%
    10:00 -3°C° 0 mm 1 mps 617 mmHg 44%
    11:00 -2°C° 0 mm 1 mps 617 mmHg 42%
    12:00 -1°C° 0 mm 1 mps 617 mmHg 40%
    13:00 -1°C° 0 mm 1 mps 617 mmHg 43%
    14:00 -1°C° 0 mm 1 mps 617 mmHg 46%
    15:00 -1°C° 0 mm 1 mps 617 mmHg 50%
    16:00 -2°C° 0 mm 1 mps 617 mmHg 51%
    17:00 -5°C° 0 mm 2 mps 617 mmHg 53%
    18:00 -6°C° 0 mm 2 mps 616 mmHg 55%
    19:00 -6°C° 0 mm 2 mps 616 mmHg 53%
    20:00 -6°C° 0 mm 2 mps 616 mmHg 50%
    21:00 -6°C° 0 mm 2 mps 616 mmHg 48%
    22:00 -6°C° 0 mm 2 mps 616 mmHg 47%
    23:00 -6°C° 0 mm 2 mps 616 mmHg 45%
    Show more